Vorticity
nan nan nan nan nan nan nan nan nan nan nan nan nan nan nan nan nan nan nan nan nan nan nan nan nan nan nan nan nan nan nan nan nan nan nan nan nan nan nan nan nan nan nan
nan 7 5 3 6 7 8 8 6 5 6 5 6 6 5 6 5 6 6 5 6 7 7 6 5 6 6 7 8 7 7 7 6 7 5 4 5 6 5 5 8 7 nan
nan 7 8 6 8 8 7 7 7 6 5 6 6 5 5 6 6 6 7 6 5 5 6 6 5 4 4 6 6 6 6 5 5 4 4 4 5 6 6 6 6 6 nan
nan 7 8 7 7 7 7 8 6 6 5 5 5 6 6 6 6 6 5 6 6 6 5 5 6 6 6 4 3 5 5 5 5 4 5 5 5 4 5 3 6 8 nan
nan 5 7 6 7 7 6 6 6 6 6 6 5 6 5 5 6 6 6 6 5 5 5 5 6 9 11 7 4 5 5 5 4 6 6 6 5 5 4 6 6 3 nan
nan 6 6 6 5 6 7 6 4 5 5 5 6 7 6 5 5 5 6 6 5 5 5 5 5 8 9 8 7 5 5 5 4 5 5 5 7 6 5 5 5 4 nan
nan 5 5 5 5 6 6 6 6 6 5 5 7 6 6 4 5 5 7 7 6 6 5 4 5 8 7 5 6 6 5 4 6 6 6 5 6 5 5 5 5 5 nan
nan 5 6 6 6 6 7 7 6 5 5 6 6 7 7 8 7 7 7 6 7 6 5 4 4 7 7 5 5 6 5 5 6 4 5 5 4 6 5 5 5 5 nan
nan 6 6 7 7 6 6 6 6 6 6 6 7 7 8 6 6 6 5 6 7 7 5 5 5 6 5 6 7 6 6 4 5 6 6 6 4 5 5 4 4 4 nan
nan 6 5 7 8 8 8 7 6 5 6 6 6 5 5 4 3 6 7 5 7 8 8 6 5 5 5 5 8 7 4 2 3 8 6 5 4 5 4 4 4 4 nan
nan 4 5 6 7 9 8 8 6 4 4 3 3 4 4 4 4 3 6 7 5 6 8 7 5 4 3 3 4 7 5 4 5 7 7 4 5 5 5 5 5 5 nan
nan 4 5 7 7 6 6 6 5 5 4 4 5 5 5 6 5 5 4 4 4 4 5 6 6 7 6 5 8 6 6 8 8 6 8 5 5 5 5 5 5 5 nan
nan 6 6 5 6 7 6 6 7 6 6 6 6 6 6 6 5 6 4 4 5 7 7 6 7 5 6 9 7 7 10 10 8 7 8 6 5 4 5 6 6 6 nan
nan 7 6 5 5 6 7 7 8 8 7 6 6 6 6 6 5 6 7 7 7 6 7 7 6 7 8 10 10 9 8 9 8 8 6 7 6 6 5 5 5 6 nan
nan 7 6 6 5 6 7 7 7 7 7 6 6 5 7 6 5 6 7 7 7 7 7 7 7 8 9 9 11 12 9 7 7 8 7 8 6 6 5 5 6 6 nan
nan 8 7 6 6 6 6 6 6 6 7 6 7 8 7 5 7 7 7 8 8 7 6 7 8 8 9 9 8 9 10 7 6 8 9 7 8 7 7 6 6 6 nan
nan 8 7 7 7 6 6 5 5 6 7 8 8 8 7 7 7 7 8 8 8 9 9 9 9 10 8 7 6 7 7 6 6 7 7 7 10 9 8 7 8 7 nan
nan 7 6 7 7 6 6 6 6 8 8 7 7 7 7 9 9 8 7 7 7 8 10 9 10 8 7 7 6 7 7 6 7 7 7 7 7 10 11 9 7 9 nan
nan 7 5 6 6 5 6 7 8 8 7 6 7 7 8 8 7 7 8 6 7 9 9 10 10 9 8 7 6 7 6 7 8 8 8 9 8 7 9 11 10 12 nan
nan 7 6 6 7 6 5 6 8 7 8 8 7 6 6 7 9 8 6 6 8 9 8 9 8 9 9 9 8 7 8 7 7 7 8 8 9 9 8 8 9 8 nan
nan 7 7 6 7 8 7 6 7 8 8 8 8 8 8 7 6 8 9 7 7 7 8 10 8 7 9 9 7 6 7 9 8 7 7 7 7 8 8 9 8 8 nan
nan 6 7 8 8 7 8 7 8 10 9 8 9 10 9 7 8 8 8 7 7 7 7 8 10 7 6 9 9 7 8 7 6 8 7 7 7 7 8 7 7 6 nan
nan 8 7 8 7 7 6 5 7 8 9 9 9 9 10 8 8 7 8 8 7 7 6 7 9 10 7 6 9 12 11 7 8 10 8 7 7 6 6 7 7 6 nan
nan 7 7 7 7 7 7 6 6 5 6 7 9 9 9 9 8 8 8 7 7 9 7 6 7 10 11 8 6 8 9 10 11 9 9 9 9 9 8 9 10 10 nan
nan 8 7 6 6 7 6 6 6 6 7 9 10 8 7 8 9 8 8 7 7 7 7 7 7 7 10 9 10 7 7 8 9 8 8 11 10 12 11 10 10 11 nan
nan nan nan nan nan nan nan nan nan nan nan nan nan nan nan nan nan nan nan nan nan nan nan nan nan nan nan nan nan nan nan nan nan nan nan nan nan nan nan nan nan nan nan
CAPE
87 158 1107 733 657 936 1613 1744 1742 1860 1457 1684 1845 1853 1690 1639 1749 1768 1731 1629 1731 2229 2185 1721 1725 1642 1627 1675 1403 1367 1585 1605 1646 1492 1254 1403 1597 1704 1656 1208 978 976 1569
35 288 825 911 987 959 1284 1949 1784 1688 1466 1604 1889 2037 1817 1846 1772 1692 1692 1732 1850 1690 1615 1772 1817 1728 1528 1486 1608 1614 1633 1528 1546 1498 1622 1584 1493 1744 1385 1225 1074 1306 1228
218 958 779 981 1124 1485 1756 1957 1864 1890 1585 1906 1903 1912 1900 1849 1797 1725 1561 1515 1799 1832 1795 1796 1711 1689 1874 1951 1738 1812 1803 1689 1803 1895 1552 1375 1683 1888 1804 1596 1617 1528 1695
592 1047 1134 1740 1799 1753 1883 1939 1800 1822 1829 1956 1978 2058 1840 1857 1413 1484 1714 1706 1821 1527 1632 1452 1176 1224 1356 1692 1973 1827 1752 1695 1728 1321 1158 958 1228 1799 1814 1869 1997 1858 1821
1062 1332 1456 1793 1942 1888 1899 1834 1899 1837 1987 1956 2061 1917 1910 1477 2135 1868 1427 1466 1912 1777 1742 1411 1374 1692 1753 1593 1845 1824 1699 1827 1646 1344 1499 1432 1750 1409 1558 1460 1672 2023 1670
1106 1670 1536 1869 2004 1997 1944 1682 2025 1939 1999 2041 2005 1874 1386 1994 1764 1852 1707 1361 1570 1665 1677 1590 1835 2002 2023 1909 1854 1997 1621 1493 1150 1473 1657 1427 1308 1446 1137 1077 1415 1453 1335
1150 1336 1629 2021 2090 2084 1934 1972 1923 2007 1929 1858 1765 1879 1914 1940 1866 1936 1920 1826 1324 1467 1530 1456 1677 1872 1936 1436 1388 1307 1177 1053 345 620 1304 1301 959 1065 745 743 772 808 833
1090 1270 1574 1862 1848 2034 2034 2017 2142 1970 2041 1970 1943 1860 1832 1854 1914 1899 1916 1718 1253 1329 1437 1355 1451 1584 1980 1493 1261 824 691 435 891 1306 1683 1266 1697 1165 742 681 802 856 917
728 1120 1598 1286 1875 1922 2074 2184 2169 2012 1999 1966 1773 1768 1839 1829 1923 1949 1677 1425 1274 1181 1286 1400 1575 1538 1491 1675 1660 1233 633 1007 448 763 625 580 838 550 513 599 764 892 998
1087 1068 1460 1840 1764 1627 2069 2086 2209 2270 2162 2044 1900 1873 2144 2062 2072 2134 2294 2139 1474 1268 1131 1279 1556 1760 1731 1673 1853 1631 1164 573 354 2 33 173 678 485 481 611 872 1093 1320
1209 1311 1668 1755 1972 1743 2052 2112 2143 2090 2177 1991 2156 2370 2331 1965 1727 1680 2257 2150 2169 2014 1796 1615 1604 2024 2029 1838 1818 1914 1546 1241 694 46 0 432 672 654 621 839 1124 1453 1714
783 1269 1585 1628 1415 1921 2180 2394 2389 2456 2518 2503 2167 2194 2051 2043 2269 2214 1823 1368 1977 1650 1427 567 1157 752 732 969 1518 1892 1931 1918 1118 221 0 423 946 1282 1227 1411 1535 1631 1837
364 1052 1332 1631 1744 1900 2350 2296 2261 2334 2091 2179 1949 1811 1906 1635 1098 1193 1295 906 1044 673 874 689 594 754 1032 1182 1352 1487 1575 967 677 102 132 480 1250 1609 1629 1606 1756 1898 2142
630 868 1233 1377 1727 1729 1738 1918 1723 1478 1487 1314 1635 1885 1641 1028 721 951 1106 802 851 1154 1716 1763 1561 1747 1812 1776 1479 1666 1400 552 187 31 58 624 1388 1605 1679 1900 1930 2214 2516
602 831 1109 1254 1648 1719 1783 1788 1152 998 872 1129 1346 1536 1308 796 571 525 672 739 1150 1421 1792 2125 2205 2197 1990 1699 1004 1513 1416 769 315 65 49 368 1271 1706 1484 1538 1918 2368 2652
511 779 927 1038 1403 1497 1458 1625 1485 1240 821 1223 1311 1645 1273 620 297 746 1164 1271 1661 2025 2213 2248 2213 2249 2003 1314 960 772 1140 832 505 98 58 134 289 1273 1548 1560 1987 2461 2594
655 795 887 846 1010 1417 1668 1737 1827 1914 1595 1460 1426 1442 1370 1634 1629 1767 1608 1802 2049 2381 2744 2614 2086 2083 1372 999 1206 694 710 380 167 85 47 109 229 256 788 1329 1989 2429 2415
483 854 965 611 799 1175 1472 1747 1533 1483 1533 1474 1315 1496 1285 1671 1951 1899 1865 2108 2242 2839 2930 2772 1984 1556 1237 1350 1414 1157 533 380 478 378 543 695 847 952 988 1295 1934 2613 2566
643 815 937 1036 1065 1220 1432 1350 1535 1265 1334 1128 890 1071 1590 2165 1911 2151 2079 1585 2241 2802 3152 2672 2206 1721 1370 1277 1154 1305 1150 1169 1175 939 1463 1661 1499 1612 2000 1936 2143 2278 2681
572 867 990 1059 1141 1391 1253 1279 1183 1043 877 618 515 1000 1584 2178 2123 2516 1664 1430 2646 2819 3024 2520 2462 2109 1766 1634 1028 1334 1256 1122 1186 1347 1405 1462 1714 1798 1803 2361 2730 2228 2524
510 660 956 1014 1085 1114 1101 1090 1146 1072 1324 833 863 1544 1928 2154 2418 2183 1200 1853 2554 2772 3211 3154 2723 2708 1903 1631 1423 1301 1212 1181 1330 1457 1441 1425 1468 1335 1310 1530 1907 1554 1083
522 655 765 775 1052 1112 1083 1180 1082 1323 1318 1379 1461 1930 2141 1886 2319 2146 1620 2080 2276 2429 3067 3103 3039 2213 1687 1778 2245 1270 1290 1229 1135 1078 1327 1401 1381 1111 1041 1003 1067 964 868
397 579 651 680 898 1021 1079 1018 1180 1310 1414 1495 2061 2561 2012 2040 2180 2233 1820 1950 1985 2366 2326 2894 2789 2726 1612 1302 1666 2289 1463 985 1313 993 1075 838 958 972 1057 1083 934 954 781
287 384 446 530 656 819 1129 992 1275 1049 1139 1565 2365 2220 2017 2082 2018 2123 2030 1975 2284 2105 2784 2667 2373 2498 2333 1526 1209 941 1264 1423 1134 1040 1074 973 873 633 610 579 689 860 790
218 249 282 414 481 654 933 1070 1504 1145 1046 1373 1395 1661 1862 2058 1954 1825 2158 2070 2229 1884 2456 2511 2451 2692 1868 1787 1407 1018 767 479 584 563 420 273 558 295 525 798 986 970 1026
176 174 203 312 415 514 810 1248 1344 1338 1186 1177 1378 1271 1470 1590 1656 2100 1956 2327 2345 2031 2177 1997 2293 2452 2364 2248 1479 1318 981 790 797 404 366 721 893 894 943 1076 1177 1459 1557